Current Weather Conditions: station 62114

sailwx.info

See reports from other nearby stations

no recent reports received from weather station ID 62114

Tides Pressure Air temp Water temp Dewpoint Dewpoint depression Visibility Wind speed Wind direction Waves Ship positions
date/time (UTC)wind fromknots sea level pressurealtimeterstation pressurevisibilityair tempwater tempwave heightnotes
2018-Apr-22 20:00 250 11 7.5
2018-Apr-22 19:00 220 15 7.6
2018-Apr-22 18:00 200 20 7.5
2018-Apr-22 17:00 200 20 7.4
2018-Apr-22 16:00 200 20 7.4
2018-Apr-22 15:00 210 20 7.7
2018-Apr-22 14:00 190 25 8.1
2018-Apr-22 13:00 190 26 8.1
2018-Apr-22 12:00 180 22 8.1
2018-Apr-22 11:00 170 24 7.9
2018-Apr-22 10:00 160 28 7.9
2018-Apr-22 09:00 160 27 7.8
2018-Apr-22 08:00 160 27 7.4
2018-Apr-22 07:00 160 27 7.4
2018-Apr-22 06:00 150 31 7.5
2018-Apr-22 05:00 160 25 7.7
2018-Apr-22 04:00 150 26 8.0
2018-Apr-22 03:00 150 27 8.0
2018-Apr-22 02:00 150 27 8.1
2018-Apr-22 01:00 150 26 8.0
2018-Apr-22 00:00 160 25 8.0
2018-Apr-21 23:00 160 27 8.1
2018-Apr-21 22:00 160 26 8.1
2018-Apr-21 21:00 170 21 7.7
2018-Apr-21 20:00 170 20 7.7
2018-Apr-21 19:00 160 18 7.7
2018-Apr-21 18:00 160 18 7.5
2018-Apr-21 17:00 160 18 7.6
2018-Apr-21 16:00 160 18 7.7
2018-Apr-21 15:00 160 17 7.8
2018-Apr-21 14:00 160 12 7.5
2018-Apr-21 13:00 170 12 7.5
2018-Apr-21 12:00 170 9 8.3
2018-Apr-21 11:00 170 6 9.5
2018-Apr-21 10:00 210 4 7.6
2018-Apr-21 09:00 250 5 8.0
2018-Apr-21 08:00 260 6 7.6
2018-Apr-21 07:00 260 8 7.3
2018-Apr-21 06:00 280 9 7.2
2018-Apr-21 05:00 290 9 7.5
2018-Apr-21 04:00 270 12 7.3
2018-Apr-21 03:00 270 11 7.5
2018-Apr-21 02:00 280 13 7.5
2018-Apr-21 01:00 290 14 7.7
2018-Apr-21 00:00 280 14 7.8
2018-Apr-20 23:00 280 13 8.2
2018-Apr-20 22:00 290 14 8.8
2018-Apr-20 21:00 300 13 9.1